Theta_e
330 335 339 346 345 345 345 345 344 344 343 342 342 342 341 341 340 340 339 339 338 338 338 337 337 336 336 336 335 335 335 334 334 333 334 333 333 332 331 333 331 328 329 333 331 331 330 332 332 332 329 330 330 330 330 331 332 333 333 332 332 332 332 334 336 335 335 337 337 337 335 335 336 337 338 338 338 338 336 335 335 333 333 333 337
327 336 338 342 345 345 345 345 344 344 343 343 342 341 341 340 339 339 339 338 339 338 338 337 336 336 336 336 335 336 334 334 334 334 333 333 332 333 332 332 331 329 330 332 333 331 330 332 333 331 331 331 331 331 331 331 333 332 332 332 332 332 333 335 336 337 336 335 335 335 334 336 337 338 338 338 338 337 336 336 335 333 331 336 338
326 337 337 341 345 344 344 344 344 343 343 343 342 341 341 340 338 338 339 338 338 337 338 337 336 336 336 336 335 335 334 334 333 334 332 333 333 333 331 332 332 327 330 332 332 330 329 332 332 330 330 330 330 331 331 333 332 332 332 331 332 332 334 336 337 336 334 334 333 333 334 335 336 338 336 335 336 337 337 336 335 335 332 338 340
330 335 335 342 345 345 343 344 344 343 343 343 341 341 340 339 338 339 339 338 338 336 337 336 336 336 336 335 335 335 334 333 334 333 332 333 333 332 331 332 330 327 330 332 331 329 331 331 331 329 331 330 329 330 331 332 332 332 331 331 332 332 335 336 335 334 333 333 332 333 331 328 330 335 333 334 336 337 337 335 335 335 338 340 342
330 334 336 341 341 344 343 344 343 343 343 342 341 341 340 339 339 339 338 338 338 336 337 337 336 336 336 335 335 334 334 333 333 333 333 333 332 332 331 332 330 329 331 331 330 329 331 330 330 330 330 330 330 330 331 331 331 332 329 332 332 334 335 335 334 333 332 332 332 333 328 327 328 334 333 335 337 337 335 335 335 337 338 340 342
328 334 337 339 340 339 344 343 343 343 343 342 341 340 339 339 339 339 338 338 338 336 337 336 336 336 335 335 335 334 334 333 332 332 333 332 332 332 333 331 331 330 331 330 328 329 330 330 327 328 329 330 330 331 331 331 331 330 331 332 333 335 334 334 333 332 332 332 333 328 328 328 325 329 334 335 337 336 335 335 337 340 342 343 344
328 334 336 337 339 339 344 343 343 343 343 342 340 340 340 339 339 338 339 338 338 337 337 337 336 336 335 335 335 335 334 333 332 332 332 331 331 331 331 332 331 330 331 331 328 329 330 329 328 329 328 328 329 331 331 331 331 330 332 332 334 334 333 332 331 331 331 331 326 326 325 326 326 327 333 334 336 337 336 338 340 342 342 344 344
325 332 334 336 337 341 343 343 342 342 342 342 340 340 339 339 339 338 338 337 337 337 336 336 336 335 336 335 335 335 334 333 332 332 332 331 331 330 331 331 331 331 331 330 329 330 329 328 328 328 328 329 329 332 331 330 330 330 331 332 333 333 332 331 330 330 331 328 326 326 325 326 326 325 332 334 337 338 337 339 342 342 342 343 341
327 326 333 333 338 341 342 343 342 342 342 342 341 340 340 339 339 338 338 337 336 336 336 336 335 335 335 335 335 335 334 333 333 332 332 331 331 331 331 331 331 331 331 330 329 330 330 329 328 328 327 329 330 331 329 329 330 331 331 333 332 331 330 329 329 330 327 326 326 324 325 326 325 324 330 335 337 337 338 340 341 342 342 341 341
325 325 330 332 337 341 342 343 342 342 342 341 341 340 340 339 339 338 337 336 335 336 335 335 335 335 335 335 334 335 333 333 333 333 332 332 331 331 331 331 331 331 331 330 328 328 330 329 328 328 328 329 330 330 329 329 330 331 332 331 330 329 328 328 328 327 324 325 324 324 325 334 325 325 330 336 337 337 339 339 339 339 339 340 341
326 325 325 333 339 340 341 343 342 342 342 341 340 340 340 339 338 338 337 336 336 336 335 335 336 334 335 335 335 333 333 333 333 332 332 332 331 331 331 331 331 331 330 329 328 329 330 329 328 328 328 328 330 330 328 329 331 331 331 330 329 328 327 327 327 321 323 324 324 323 326 332 326 325 333 335 336 338 339 340 341 340 341 341 343
326 325 325 331 337 339 341 342 342 342 342 342 341 341 340 339 338 338 337 336 335 335 335 336 336 335 335 335 335 334 334 333 333 332 332 331 331 331 331 331 331 330 329 329 329 329 329 329 328 328 328 328 330 329 329 329 331 330 329 328 328 327 327 326 324 321 322 324 324 324 323 324 325 328 333 335 336 339 341 342 342 341 343 343 342
326 324 326 338 336 338 339 341 342 342 342 341 341 339 339 339 338 338 337 336 335 335 335 335 336 335 335 335 334 334 333 333 333 332 332 331 331 331 331 330 330 330 330 330 329 328 329 329 329 328 327 327 329 329 329 329 330 329 328 328 327 326 325 326 321 320 320 322 324 323 323 322 324 332 332 334 337 339 341 342 341 342 344 342 341
326 325 327 338 336 336 338 339 341 342 341 341 341 340 339 338 338 337 336 336 335 335 335 335 335 335 334 334 334 333 333 332 332 332 331 331 331 331 331 330 330 329 330 330 329 328 328 329 329 327 328 328 329 328 328 329 330 329 328 327 326 325 325 323 322 319 320 321 322 323 321 323 323 331 332 334 336 339 341 343 342 343 344 342 341
327 327 328 335 336 335 335 338 339 340 340 340 341 341 340 338 338 337 336 336 335 335 336 336 336 336 334 334 333 333 333 332 333 333 332 332 330 331 331 330 330 330 330 330 329 328 328 328 328 329 328 328 329 329 328 329 329 328 326 326 325 325 324 319 318 317 319 321 320 321 321 322 330 331 332 334 336 339 342 341 341 342 343 342 340
331 330 329 334 335 335 334 336 337 338 339 339 339 340 340 339 338 337 336 336 335 335 335 335 335 334 334 334 333 333 332 332 334 334 332 332 330 331 330 330 330 330 329 329 328 328 328 328 329 329 328 328 328 328 328 329 329 327 326 325 324 324 323 323 317 316 318 319 319 320 321 322 330 331 332 333 336 339 341 341 341 342 341 341 339
334 331 329 332 335 335 334 335 336 337 337 337 337 338 339 338 338 337 337 336 335 335 335 335 335 335 334 335 334 333 332 332 332 334 331 331 331 332 330 329 329 329 329 329 328 327 327 328 328 328 328 327 328 328 328 328 327 326 325 324 324 323 323 323 317 316 318 321 322 322 322 323 328 330 331 333 336 340 342 341 341 341 341 340 339
333 332 329 331 334 334 334 335 335 335 335 335 335 336 337 337 337 336 336 336 336 336 335 335 335 335 335 334 334 334 334 334 333 333 331 331 330 330 330 329 329 329 329 328 328 327 326 326 327 327 326 326 327 327 328 327 326 325 325 324 323 323 323 323 317 317 318 324 321 321 321 328 329 330 331 334 338 339 340 341 343 340 340 340 339
329 329 330 329 333 333 334 334 334 335 335 334 334 334 335 335 335 335 335 335 335 335 334 334 334 334 333 332 331 331 332 333 333 332 331 331 330 330 329 329 329 329 328 328 327 326 325 324 325 325 326 327 328 327 327 327 325 325 324 324 323 323 323 321 316 317 319 320 317 318 321 328 329 329 331 335 338 340 341 341 342 342 340 339 338
326 326 327 329 331 332 332 333 333 334 334 334 334 333 334 334 333 333 333 334 334 333 332 331 331 331 331 330 329 329 330 330 332 330 332 330 330 328 329 328 328 328 328 327 327 325 323 324 324 324 325 327 327 327 327 326 325 325 325 323 323 323 317 315 317 317 318 317 320 319 325 327 328 329 332 335 338 340 340 341 342 343 340 339 338
326 325 323 328 330 331 332 332 333 333 333 333 333 333 333 332 332 332 332 332 332 331 330 330 328 328 327 327 328 328 326 326 327 326 330 327 327 326 328 327 327 327 327 326 325 323 323 324 324 324 325 325 326 327 326 326 326 326 325 324 323 317 314 316 316 318 318 317 317 319 325 326 327 330 333 335 338 340 342 340 343 341 340 339 338
322 323 323 326 328 329 331 332 332 332 332 333 334 333 333 332 332 331 330 330 330 329 329 329 328 327 325 326 326 325 324 324 324 326 325 325 325 325 325 326 327 326 326 325 324 323 324 325 325 324 323 324 326 319 321 327 327 326 324 323 318 314 316 316 316 317 317 317 318 321 323 325 327 331 333 335 338 340 340 341 340 340 339 339 338
319 321 322 324 327 328 329 330 332 332 331 332 333 333 332 331 332 332 331 329 329 328 329 328 327 327 326 326 325 325 324 323 322 324 324 324 324 324 324 325 326 326 326 325 323 322 324 324 324 323 322 322 321 317 317 317 321 326 324 319 315 315 316 316 316 315 315 317 317 323 323 325 327 331 333 336 338 339 340 341 340 342 339 339 339
319 321 322 324 327 327 328 330 331 333 332 331 332 332 332 332 332 332 332 331 330 329 329 328 328 327 327 326 325 324 323 323 325 326 325 324 323 323 323 323 324 325 324 323 322 320 321 322 322 322 326 324 319 318 319 319 319 319 317 316 316 315 316 315 316 314 315 318 316 322 323 325 327 330 333 335 337 338 339 339 341 342 339 339 339
316 321 322 323 325 326 328 329 329 332 332 331 332 332 333 332 332 331 331 331 330 329 329 328 328 327 327 325 325 323 323 322 322 323 322 321 321 320 321 320 319 318 322 315 314 314 318 314 314 319 315 317 318 318 317 318 318 318 317 316 316 314 314 315 315 315 314 316 314 322 323 325 327 330 332 335 337 337 337 339 339 339 339 339 338
315 316 322 323 324 326 327 328 328 330 331 331 332 332 333 332 331 331 330 330 330 330 329 328 328 327 326 326 324 323 323 322 322 322 321 321 320 319 319 318 317 317 318 315 311 310 312 312 313 314 313 313 316 317 317 317 316 316 315 315 315 315 313 314 315 315 315 316 315 321 322 323 325 328 331 334 336 336 337 338 338 338 338 338 338
313 313 319 324 325 325 327 328 327 329 330 331 331 331 331 331 331 331 330 329 330 329 329 328 328 327 326 326 325 324 323 323 322 321 321 320 319 319 319 319 318 318 318 316 311 309 313 312 309 310 310 309 310 315 316 316 316 315 315 315 316 315 313 314 314 314 314 316 317 320 322 323 323 326 329 333 335 336 337 338 338 340 340 338 338
313 314 314 322 324 325 326 327 327 328 329 330 330 331 330 330 329 329 329 328 329 328 328 328 328 327 327 326 325 325 324 323 323 322 321 320 319 319 319 319 318 317 318 316 309 307 312 311 308 308 308 308 310 314 316 316 314 314 314 314 315 314 313 313 314 314 314 315 315 318 320 321 322 324 328 331 333 335 337 337 338 339 339 338 337
311 313 314 315 323 324 326 326 327 327 329 330 329 330 329 329 329 329 329 327 329 329 329 328 327 327 327 327 326 325 324 323 323 322 321 320 319 319 318 318 318 317 316 313 309 308 308 308 307 307 307 309 312 313 314 315 315 315 314 313 314 313 312 313 314 314 314 313 315 316 319 320 321 323 327 329 332 334 335 336 337 339 338 338 339
311 312 313 315 317 324 325 326 326 327 327 329 328 327 328 327 328 329 330 328 329 329 329 328 328 327 327 327 327 326 325 324 323 322 321 319 319 319 318 318 318 317 314 310 307 307 307 306 306 307 308 310 312 315 315 314 314 313 312 312 313 313 312 312 312 313 313 313 314 314 318 320 321 322 325 328 330 332 333 334 337 338 337 339 338
311 311 312 314 316 318 324 324 325 325 326 327 326 326 326 327 327 328 328 329 329 329 329 328 328 328 328 328 327 326 325 324 323 321 320 319 318 318 318 318 317 316 312 308 307 308 307 307 307 306 308 309 310 313 315 315 314 313 312 312 312 312 312 313 313 313 314 312 312 315 316 319 320 321 323 325 327 330 331 333 335 337 338 338 337
310 311 312 313 314 315 319 324 324 324 324 325 325 325 325 326 326 327 327 328 328 328 328 328 327 328 328 328 327 327 325 324 323 322 320 319 318 318 318 318 317 315 311 308 306 308 308 308 307 308 309 310 312 312 315 312 313 314 313 312 312 312 312 312 312 312 312 313 311 314 313 316 319 319 322 323 326 328 329 331 334 336 337 337 337
311 312 313 313 313 314 315 320 323 322 322 323 325 325 325 326 326 326 327 327 327 327 327 328 327 328 328 328 327 327 325 325 323 322 319 319 318 317 317 317 317 315 311 308 307 307 308 307 309 310 309 310 311 312 314 313 310 312 313 312 312 311 311 311 312 311 312 311 311 312 312 314 314 319 320 321 325 326 328 330 332 334 336 339 337
309 310 312 312 314 316 317 316 320 321 321 322 323 324 324 325 326 326 326 326 326 326 326 327 327 327 327 328 328 327 325 325 324 322 320 318 318 317 317 317 316 315 311 308 306 307 306 307 307 309 311 309 309 310 311 310 309 309 311 311 310 309 310 311 311 311 312 310 310 310 312 313 314 315 316 319 322 324 326 328 330 332 334 336 337
308 308 310 311 312 315 316 316 316 319 320 320 321 323 324 325 325 326 325 325 325 325 325 326 326 326 326 327 327 327 326 325 324 323 320 318 318 317 317 317 316 314 310 307 306 308 307 306 307 308 307 307 308 309 311 311 310 310 310 311 312 311 310 310 311 310 311 309 309 310 312 312 312 313 315 315 320 321 323 325 328 329 332 333 336
307 308 308 310 311 313 314 314 315 317 319 319 321 323 323 324 325 324 324 324 324 324 324 324 325 325 325 325 326 326 325 325 325 324 321 319 318 318 317 317 316 313 310 307 306 307 306 307 307 308 306 306 307 309 309 310 310 310 309 310 309 309 308 308 309 310 310 309 308 311 311 312 313 312 314 314 315 318 321 322 325 327 328 330 333
307 307 307 308 310 312 313 313 314 316 319 319 320 320 322 322 323 323 323 323 323 323 323 323 324 324 324 324 325 326 325 325 325 324 322 320 319 318 317 317 315 312 309 307 306 307 306 307 306 308 307 305 307 307 308 310 309 310 310 308 308 308 308 308 309 309 311 308 308 310 311 312 312 315 313 315 314 316 318 319 322 323 324 326 330
307 307 307 308 309 311 312 313 315 316 318 319 318 318 320 321 321 320 320 321 322 322 322 323 323 323 323 323 324 325 324 325 324 324 323 322 319 318 317 316 315 312 309 307 305 305 306 306 305 306 307 308 307 308 308 308 310 310 308 308 307 307 306 307 308 308 307 306 308 309 310 310 312 313 312 313 313 315 315 318 319 320 321 322 327
307 307 306 307 309 309 310 313 315 315 315 317 317 317 317 317 316 317 318 319 321 321 321 322 322 322 322 322 323 324 323 324 324 324 323 321 319 317 317 316 314 312 309 306 305 304 306 306 306 306 307 308 307 308 309 309 309 309 308 308 307 307 307 307 307 307 306 307 307 307 311 312 310 312 312 312 313 313 313 314 316 318 319 320 323
306 306 306 307 308 308 308 308 312 316 314 315 315 315 314 314 314 314 315 317 319 320 321 321 321 321 321 321 322 323 322 323 323 323 323 320 319 317 316 316 314 312 309 306 304 303 305 306 305 306 305 305 306 309 309 309 306 306 306 306 307 307 307 306 306 306 306 307 306 305 307 311 310 310 313 313 312 312 312 313 314 317 318 319 320
304 305 305 306 307 307 306 307 310 314 314 313 314 314 313 312 312 314 315 316 317 319 319 319 320 320 320 321 321 322 322 322 322 323 322 319 319 317 316 315 314 312 309 307 305 304 305 306 306 306 305 305 304 305 308 308 307 305 305 306 306 306 307 307 306 306 306 305 306 305 306 309 310 309 311 311 311 311 310 312 313 316 317 317 319
302 303 305 306 306 306 305 306 311 313 313 314 313 313 313 313 313 313 314 315 316 317 318 318 319 320 320 321 320 321 320 321 320 321 320 319 317 317 316 315 314 312 310 308 305 305 305 307 306 305 306 305 304 305 309 308 303 301 301 302 303 304 305 306 305 306 305 306 305 304 306 308 309 310 311 310 310 312 311 311 311 315 315 316 318
302 303 303 304 304 305 305 306 310 311 311 312 312 311 311 311 312 311 314 313 316 317 317 317 317 318 320 320 320 319 319 319 319 319 320 318 317 317 316 315 314 312 310 308 306 304 306 307 306 306 305 304 303 306 307 307 300 302 300 300 299 301 302 301 303 305 306 306 305 304 304 306 308 309 309 309 309 310 312 312 311 312 313 315 316
301 301 302 303 305 306 305 306 307 309 309 310 310 310 310 311 311 313 314 314 313 315 315 316 316 317 318 319 318 318 317 317 317 318 318 318 317 317 316 315 314 313 311 308 306 304 306 307 306 306 306 303 303 304 307 307 302 302 297 297 296 300 297 297 297 300 304 304 306 305 304 305 306 308 308 308 309 309 310 311 311 312 312 312 315
303 301 301 302 305 303 303 304 305 307 307 308 309 310 310 310 310 312 312 312 312 313 313 313 315 316 316 317 317 317 317 316 316 317 317 318 317 317 316 315 314 313 312 309 306 305 307 307 307 306 306 304 302 303 305 308 304 303 300 296 295 294 294 296 297 297 300 301 303 305 304 303 305 308 307 307 308 308 309 309 311 311 310 312 312
302 303 302 304 301 302 302 303 303 305 306 307 309 310 310 310 309 310 309 309 309 310 311 312 313 314 315 316 316 317 316 316 316 316 316 316 316 316 315 315 314 313 312 311 308 305 306 307 307 306 306 304 304 304 303 305 306 304 304 300 298 294 294 297 294 292 298 299 302 302 303 302 301 304 306 307 308 308 309 309 311 310 311 311 313
302 304 304 303 302 302 301 302 302 304 306 306 308 309 308 309 309 309 310 309 309 310 310 311 313 312 313 314 315 315 316 315 315 315 315 315 316 316 315 315 315 314 312 311 309 306 307 307 308 306 306 305 304 304 304 305 304 305 304 301 299 299 299 298 295 293 292 295 299 300 300 301 301 303 305 306 308 307 308 309 309 309 309 312 314
304 305 305 305 303 302 302 302 302 303 305 307 307 308 308 308 308 308 309 309 308 308 309 310 311 311 312 312 313 314 315 315 315 315 315 315 315 315 315 314 314 314 312 312 310 308 307 308 307 307 306 306 305 305 305 305 304 303 304 303 300 300 300 300 298 295 294 292 294 297 299 301 301 301 303 305 307 307 309 308 308 308 308 310 314
305 305 304 304 304 304 303 301 301 301 304 306 306 307 308 308 308 308 308 308 307 307 308 309 310 310 310 310 312 313 313 314 314 315 315 315 314 314 315 314 313 313 312 312 310 309 307 307 306 306 305 305 305 305 305 305 304 302 302 301 299 299 299 299 299 297 295 292 293 293 294 298 299 300 302 303 305 305 307 308 307 308 310 310 312
305 306 305 303 303 302 302 301 301 302 304 305 305 305 306 307 307 307 306 305 305 306 307 308 308 309 309 309 311 311 312 312 313 314 314 314 313 313 314 314 313 313 311 312 310 309 308 307 307 307 306 305 305 304 306 305 305 302 304 302 301 298 298 297 297 296 297 296 293 294 294 296 295 297 300 301 301 302 303 304 306 306 306 311 312
304 304 304 304 303 302 301 301 302 303 303 303 304 305 305 305 306 306 305 304 304 306 306 306 307 307 308 309 310 310 311 311 312 312 313 314 313 313 313 313 313 312 310 311 310 309 308 308 307 307 305 305 305 304 304 305 304 302 303 302 301 301 300 298 298 297 296 293 294 295 294 297 296 295 299 299 300 301 302 301 304 305 307 309 311
Wind_Speed
5 7 10 16 18 18 18 18 19 18 17 17 16 15 15 14 14 13 13 13 13 12 12 12 11 11 10 10 10 9 9 8 8 8 8 7 6 6 6 6 5 4 5 4 2 1 1 2 1 1 1 2 2 1 2 4 5 6 7 7 6 6 7 8 9 10 9 9 11 12 14 15 16 16 15 13 12 11 11 12 11 8 7 7 13
8 8 10 11 18 18 19 18 18 18 18 17 16 16 15 14 14 13 13 13 12 12 12 11 12 11 10 9 9 9 8 8 8 8 7 7 7 7 6 6 5 4 4 3 2 0 1 1 1 1 2 4 3 4 5 5 7 7 6 6 6 7 8 10 10 10 10 11 12 14 14 15 15 15 13 11 10 10 10 12 12 8 3 11 14
6 11 10 12 16 18 19 19 18 18 18 17 17 16 15 15 14 14 13 13 13 12 12 12 12 11 10 10 9 9 8 8 8 8 7 8 7 6 6 5 4 4 4 3 1 2 2 2 2 2 2 3 2 4 5 7 7 6 6 5 6 8 9 9 9 10 11 12 13 15 15 14 14 14 9 8 9 10 11 12 12 13 6 15 14
6 9 9 13 16 17 19 19 18 18 18 17 17 16 15 15 15 14 14 14 13 13 12 12 12 11 10 10 10 9 8 8 8 8 8 7 6 6 6 5 4 4 4 3 1 1 2 1 1 0 3 1 2 3 5 6 6 5 6 6 7 8 9 8 10 11 12 13 14 14 6 6 8 12 9 9 10 10 12 13 14 14 15 15 18
5 9 9 11 11 14 18 18 18 18 18 17 17 16 16 15 15 15 15 14 13 13 13 12 11 11 10 10 10 9 9 8 8 7 7 7 6 6 6 5 5 4 4 3 2 2 2 1 2 1 2 3 3 4 4 4 5 6 5 7 8 9 8 9 10 11 13 14 14 12 6 6 6 6 11 11 10 10 12 12 13 15 16 16 18
5 8 9 10 10 11 16 18 18 18 18 17 17 16 16 16 16 15 15 14 14 13 13 13 12 11 11 11 10 10 9 9 8 8 7 6 6 6 7 5 5 5 4 3 3 3 3 1 1 2 2 1 3 4 5 5 5 5 7 8 8 8 9 10 11 12 13 14 14 6 6 4 3 5 11 12 10 10 13 14 14 16 17 18 18
6 7 9 10 9 11 15 16 18 18 19 18 17 17 16 16 16 15 14 14 14 14 13 13 12 12 12 11 11 11 9 9 9 8 8 7 7 6 7 7 6 5 5 4 4 4 3 1 2 2 1 3 2 4 5 5 5 6 7 8 8 8 9 10 11 13 14 11 5 6 5 4 4 3 11 13 10 11 15 16 17 17 18 18 20
4 6 8 9 8 13 16 17 18 18 18 17 17 17 16 16 15 15 15 14 14 14 13 13 13 13 12 11 11 10 10 10 9 9 8 7 8 7 7 6 5 5 5 4 4 5 2 3 1 2 1 3 3 4 4 4 5 6 7 8 8 9 10 11 12 13 15 7 6 5 3 4 4 3 10 12 10 13 16 17 17 18 18 20 19
4 4 8 8 8 17 16 17 18 18 18 17 17 17 17 16 16 15 15 15 15 14 14 14 13 13 12 12 11 11 10 10 9 9 8 8 8 7 8 7 7 7 6 5 5 4 4 3 1 1 2 3 4 3 4 4 5 6 7 8 8 9 10 11 12 14 9 5 6 4 4 4 3 4 9 11 11 15 17 17 15 17 18 17 17
4 4 5 7 8 19 16 17 19 18 18 18 17 17 17 17 16 16 15 15 15 15 14 15 14 13 12 12 12 11 11 10 10 10 9 9 8 8 8 8 7 7 6 6 6 6 5 3 3 2 3 4 3 4 4 4 5 6 5 8 8 9 10 11 13 11 7 6 4 5 4 6 4 4 7 10 13 16 18 19 14 14 13 16 16
5 4 4 6 11 20 18 17 18 19 19 19 18 17 17 17 16 16 15 15 16 15 15 15 15 13 13 13 12 12 11 11 10 10 9 9 9 9 9 9 8 7 6 6 6 6 6 4 3 3 3 3 4 4 3 4 4 4 6 7 8 9 10 10 11 5 6 7 6 4 4 8 4 4 8 11 15 18 20 20 19 15 18 18 19
5 4 3 2 15 21 19 18 17 19 19 19 18 18 17 17 16 16 16 16 16 16 16 15 15 14 14 13 13 12 12 11 10 10 10 9 10 9 9 8 8 7 7 6 6 6 5 4 3 4 5 4 4 4 4 2 4 4 7 5 7 9 10 11 7 6 6 6 6 4 4 4 5 6 10 12 17 19 20 21 19 18 19 19 18
5 5 3 5 10 18 19 18 17 17 18 18 18 18 17 16 16 16 16 16 16 16 16 16 15 15 14 14 13 13 12 11 11 11 10 10 10 10 10 9 9 8 7 7 7 6 5 5 5 6 6 5 5 4 4 5 6 7 3 4 7 8 9 11 6 6 6 7 6 4 4 4 4 8 10 16 19 20 21 21 20 19 18 19 18
5 5 4 6 5 15 19 18 17 16 16 16 16 16 18 17 17 17 16 16 16 16 15 15 15 14 14 14 14 13 12 12 12 11 11 10 10 10 10 9 9 9 8 8 7 6 6 6 7 7 6 5 5 4 4 6 5 5 3 4 6 7 9 7 7 5 7 7 5 4 3 4 5 9 13 17 19 21 20 21 20 19 19 19 18
6 6 4 5 6 9 17 17 16 16 15 15 15 16 18 18 17 17 16 16 17 16 15 16 15 15 15 14 14 14 12 12 10 9 9 9 10 10 10 10 9 9 9 8 7 6 6 7 8 7 6 4 5 5 4 2 2 2 2 4 6 7 9 5 5 5 7 7 3 4 5 6 6 11 15 18 20 21 22 19 19 19 19 19 16
8 6 5 5 7 7 9 13 16 15 15 15 15 15 16 16 16 17 16 17 17 17 17 16 16 15 15 14 14 14 13 12 10 8 8 7 9 9 10 10 10 9 9 8 7 7 7 8 8 7 6 6 6 5 6 2 2 3 4 4 6 7 9 6 5 5 7 7 4 4 4 3 12 14 16 19 20 21 20 19 19 19 18 18 15
6 6 5 5 7 7 8 9 10 14 13 14 14 14 15 15 15 15 15 16 17 17 16 16 16 15 14 13 12 13 13 12 11 9 9 9 8 6 9 11 10 10 9 8 8 8 8 8 8 7 6 6 7 6 5 7 1 2 4 5 7 8 8 8 4 6 6 5 4 4 4 3 10 15 17 19 20 21 21 20 19 19 18 18 16
3 4 5 5 6 7 7 8 8 9 7 10 13 13 14 14 14 14 14 14 15 15 15 15 14 13 12 11 11 10 11 11 11 9 10 10 9 8 8 11 11 10 9 8 8 8 8 8 8 7 7 7 7 6 6 6 5 1 4 6 7 9 9 8 4 5 7 6 5 3 4 8 14 16 18 18 20 20 20 19 19 20 19 17 15
4 4 5 5 5 8 8 8 8 8 8 7 7 9 13 14 14 14 15 15 14 13 14 14 12 11 11 11 10 10 9 8 9 8 10 11 10 10 9 10 11 11 9 9 9 9 9 9 8 7 7 7 7 6 5 2 1 3 5 7 8 9 9 6 4 6 5 6 3 3 4 12 14 16 17 18 19 20 19 19 19 18 20 17 15
5 5 5 5 5 7 7 8 8 9 8 7 7 8 10 12 14 15 15 15 14 13 13 13 12 11 11 10 11 10 10 6 9 7 9 11 12 9 10 8 10 10 10 9 9 9 9 9 8 8 7 7 7 6 7 3 3 5 7 8 8 9 5 5 4 3 6 3 3 5 8 13 15 16 16 17 19 20 19 18 18 19 19 18 15
4 5 5 7 6 6 9 7 9 9 9 8 8 8 9 11 10 14 15 15 14 14 13 13 13 12 10 10 10 9 7 6 6 5 8 8 10 11 11 11 9 10 10 9 9 10 9 9 8 8 7 7 7 7 5 5 7 8 9 9 9 5 5 5 3 4 4 3 2 4 10 12 15 15 16 18 19 20 20 18 19 19 20 18 17
6 6 5 7 7 7 7 8 8 11 9 8 7 7 8 12 8 8 9 11 12 12 11 9 9 7 12 10 8 7 6 6 7 8 7 7 9 13 12 11 11 11 10 9 8 9 9 9 8 8 8 7 7 2 3 7 10 9 10 11 5 5 5 1 3 4 4 3 2 4 9 12 14 15 16 17 18 19 18 20 19 19 20 19 17
5 6 7 7 8 7 7 7 8 10 10 9 7 7 8 9 9 9 8 10 9 10 9 9 7 8 7 7 7 7 7 6 7 8 8 10 10 13 13 12 12 12 11 10 8 9 9 9 9 8 8 8 3 4 4 4 6 10 10 6 5 5 2 1 3 3 3 4 3 5 8 11 14 15 15 16 17 18 19 20 19 19 20 19 18
7 8 8 7 8 8 9 9 8 10 10 8 7 7 6 9 9 9 8 8 9 9 9 9 8 9 8 8 7 7 7 7 8 12 11 8 9 13 14 12 12 11 11 7 8 9 10 9 9 7 3 2 4 5 6 6 6 6 5 5 6 4 1 3 3 3 2 2 2 5 8 11 13 14 15 16 17 17 19 19 19 20 20 20 17
7 8 7 9 10 10 9 9 8 9 9 8 8 7 7 8 9 9 9 9 9 9 9 9 9 9 9 7 8 7 7 7 7 6 7 7 7 7 8 8 7 6 9 5 5 5 6 4 3 4 3 4 5 5 6 6 4 5 7 5 1 2 2 3 3 2 2 0 1 4 7 10 12 14 15 16 17 17 18 20 20 20 20 19 18
5 7 9 9 11 10 10 10 10 9 10 9 9 8 8 7 9 9 9 8 9 9 9 9 9 10 9 8 8 8 8 7 7 7 7 7 6 7 7 6 6 6 6 6 5 5 6 6 5 5 6 6 6 7 6 4 3 1 0 1 0 1 2 3 3 2 2 1 2 3 6 8 11 13 14 15 16 17 18 18 19 18 19 19 18
6 6 7 8 10 10 10 10 11 10 11 9 8 7 8 7 8 9 9 9 9 9 10 10 10 10 10 9 8 8 8 7 8 7 8 7 7 7 7 7 7 7 6 7 6 6 6 7 6 6 6 6 7 6 6 4 1 0 0 1 0 1 2 4 2 2 1 3 2 1 3 6 9 12 14 15 16 16 17 18 19 20 19 19 17
7 7 7 7 10 11 11 11 11 11 10 10 9 9 8 8 9 9 10 9 9 10 10 10 10 10 10 9 9 7 8 8 8 7 8 7 7 7 8 8 7 7 6 7 7 7 7 7 7 6 7 7 7 5 4 3 2 1 2 2 1 1 3 3 3 2 1 3 1 2 2 3 7 11 13 14 15 16 18 18 19 19 19 19 18
7 7 7 8 10 11 12 13 12 12 11 11 10 9 9 9 9 9 10 10 9 9 10 10 10 10 10 11 10 9 8 8 8 8 7 8 7 7 7 8 8 7 7 8 8 8 7 7 7 7 7 6 5 4 4 4 4 4 4 3 2 2 3 3 4 2 3 3 3 2 2 1 3 8 12 13 15 16 17 18 19 19 18 19 17
9 8 8 8 9 12 13 14 13 13 12 11 10 9 9 10 10 10 9 9 9 9 9 9 9 10 10 11 11 10 9 8 8 7 8 8 8 7 7 7 8 8 7 8 8 7 7 7 6 5 5 5 4 5 4 5 4 4 4 3 2 1 3 3 3 3 1 2 3 1 4 2 1 4 9 12 14 16 17 17 19 20 19 20 18
10 11 10 8 9 11 13 13 12 12 10 11 10 10 10 10 10 9 9 10 9 8 8 9 9 9 9 11 11 11 8 8 7 8 7 8 8 8 8 7 7 8 7 7 7 7 7 7 7 7 6 5 6 5 6 5 5 4 3 3 1 1 3 4 3 1 1 1 2 5 2 4 2 3 5 10 13 15 16 17 18 20 20 21 19
13 13 12 10 9 11 12 14 14 12 12 11 11 11 11 11 10 9 10 9 9 8 8 8 9 9 9 10 10 10 9 7 8 8 8 8 8 8 7 7 7 7 7 7 7 7 7 6 6 6 5 5 6 4 5 5 5 6 4 4 3 2 4 3 3 2 1 0 3 5 2 3 3 3 3 8 10 14 16 16 19 20 20 20 20
10 13 13 12 13 11 12 13 14 13 13 13 12 11 10 9 9 10 9 9 9 8 8 9 8 8 9 10 11 11 10 8 8 9 8 8 8 8 8 8 7 7 7 7 7 7 6 6 6 5 5 4 4 5 4 4 4 5 5 4 4 3 3 3 3 3 0 1 3 4 2 2 3 4 6 8 5 10 15 17 17 20 20 20 19
9 8 12 15 11 8 9 9 13 14 14 13 12 10 10 10 9 9 8 9 9 9 9 8 8 8 9 9 10 11 10 9 7 8 8 8 8 8 8 7 7 7 7 8 8 7 7 6 6 6 5 4 4 4 5 4 3 2 4 4 3 2 3 1 2 2 0 2 2 3 3 1 3 3 4 6 6 8 13 16 17 18 21 21 20
8 7 11 12 12 10 8 8 10 12 13 14 12 12 11 10 9 9 8 10 9 9 9 8 8 8 8 8 10 10 11 11 9 8 9 8 8 8 9 8 7 7 7 7 8 7 7 7 7 7 4 4 4 4 4 5 4 4 4 4 5 4 1 2 4 3 2 2 3 3 2 1 3 3 5 3 5 6 9 13 15 16 18 19 22
12 10 9 10 12 11 10 10 8 11 12 13 12 12 11 10 9 9 9 9 9 9 9 9 8 7 8 8 9 10 10 11 10 8 8 8 8 8 8 7 8 7 7 7 7 7 7 7 6 7 7 5 5 4 4 5 5 5 4 4 4 3 2 2 3 2 2 0 3 1 2 1 0 3 4 3 3 4 9 10 13 14 14 17 19
12 12 11 9 10 11 12 11 11 12 12 13 13 10 9 10 10 10 10 9 9 9 8 8 8 8 8 8 9 10 10 11 11 9 9 9 8 8 7 8 8 8 7 8 7 7 7 7 7 7 7 7 7 5 4 5 5 4 4 4 3 3 2 2 3 2 2 1 4 2 2 0 0 2 3 3 3 4 6 9 11 11 11 14 16
13 13 12 13 12 10 11 13 12 13 12 12 12 11 10 10 9 9 9 9 10 9 8 8 9 8 8 9 9 10 10 11 11 9 8 9 7 7 7 8 8 8 8 8 8 7 7 7 8 6 7 7 7 6 5 4 4 4 4 4 4 3 3 3 2 0 1 3 4 1 0 2 2 0 2 2 3 4 3 6 9 9 11 12 12
12 13 12 10 11 11 10 10 11 11 10 10 9 8 7 5 5 6 7 8 7 8 8 8 8 8 9 9 9 10 10 10 10 10 9 8 8 8 8 8 8 8 8 8 8 7 7 7 8 7 6 6 7 6 6 5 4 4 4 4 4 4 4 3 2 2 3 4 1 1 1 4 2 1 1 1 2 3 3 3 5 5 6 11 12
11 10 10 8 10 9 8 8 8 9 8 7 7 7 7 7 8 5 6 8 8 8 7 8 8 9 9 9 9 9 9 10 11 10 10 8 9 8 8 9 9 8 9 9 9 8 9 9 7 9 7 5 4 7 6 5 3 4 3 3 4 4 4 3 3 2 3 2 2 3 4 5 1 3 0 0 2 3 3 3 4 5 5 8 12
8 9 9 10 10 10 9 10 9 9 9 8 8 9 9 8 7 10 11 10 9 8 8 7 8 8 8 9 9 9 10 10 10 10 10 9 8 7 8 8 9 9 9 10 9 9 7 8 7 7 9 7 5 4 6 7 6 1 2 4 4 4 4 4 3 3 3 3 3 3 3 1 0 3 1 1 2 2 2 3 3 5 6 5 7
6 7 9 10 10 10 10 10 8 9 11 11 11 10 10 11 11 12 9 7 8 9 9 8 8 7 8 9 9 9 10 10 10 10 9 9 8 8 7 9 9 9 8 8 7 8 8 8 7 6 5 8 6 5 6 8 4 5 3 3 3 2 4 4 4 3 3 4 4 3 1 2 0 1 0 1 2 0 2 2 2 4 5 5 6
6 7 7 7 7 8 9 9 9 10 10 11 10 10 8 7 8 5 8 5 5 6 7 7 6 7 7 8 9 9 9 9 10 9 9 8 8 8 8 8 9 9 8 9 9 9 9 10 10 9 7 4 4 4 6 7 6 6 3 2 2 2 1 1 1 3 3 4 2 2 3 2 3 0 1 0 1 0 0 1 2 3 4 4 5
5 4 6 8 8 9 9 9 9 9 9 9 9 8 7 6 5 5 6 7 6 6 5 5 6 6 7 7 7 9 9 9 9 9 8 9 9 9 8 8 10 9 9 10 10 10 10 9 10 9 9 8 6 7 7 7 5 8 3 4 4 5 1 5 3 2 5 4 4 4 3 3 3 3 2 2 1 1 1 1 2 2 3 4 5
5 5 5 5 5 7 7 7 7 8 8 8 9 7 7 6 6 5 5 4 3 6 6 6 8 6 5 7 9 9 10 9 10 11 10 11 11 10 9 9 10 9 9 9 10 12 12 11 12 10 12 11 9 5 7 8 7 6 6 3 0 0 4 2 4 0 3 3 4 4 4 4 3 4 3 3 2 2 1 2 1 1 3 4 4
5 5 4 3 4 5 5 6 5 7 8 9 10 9 10 10 9 9 9 8 8 9 12 13 11 11 12 7 7 9 9 9 9 10 10 8 9 9 8 9 10 9 9 9 9 9 10 11 12 11 11 8 11 7 7 5 9 9 4 3 2 3 5 4 5 2 0 3 5 4 4 4 3 3 4 3 3 3 3 2 0 2 1 3 4
3 3 3 4 4 5 6 7 7 7 8 9 11 10 10 10 14 13 12 13 12 10 7 6 8 7 6 7 8 7 9 10 9 9 9 9 8 9 9 9 10 10 9 9 9 11 11 12 10 10 10 9 9 9 10 9 5 6 4 3 3 1 1 6 3 5 2 1 3 4 3 4 4 2 3 4 4 3 3 3 2 2 3 1 4
4 3 3 3 4 5 6 7 6 7 6 8 10 10 11 10 11 10 9 9 9 8 8 7 6 6 7 7 6 7 8 9 9 9 10 10 9 9 9 8 9 10 10 10 10 10 9 8 10 11 9 9 11 11 9 9 11 8 6 5 3 1 0 1 1 4 6 5 3 3 2 4 4 4 4 4 4 4 4 4 4 2 3 2 2
5 4 3 1 0 1 2 4 5 5 5 8 9 9 9 10 10 9 8 6 6 6 6 6 7 7 7 6 7 7 8 8 9 9 10 10 9 9 9 9 9 10 9 9 8 10 12 12 12 11 11 10 8 8 9 10 9 8 7 5 4 4 2 1 2 2 2 4 1 4 3 1 1 4 5 4 4 4 4 5 4 4 5 3 1
4 5 4 3 2 1 2 3 4 4 5 7 8 8 7 7 8 8 9 7 6 6 7 8 7 8 8 8 7 7 8 8 9 9 9 10 10 9 9 10 10 9 9 10 9 10 11 12 13 13 11 11 8 8 10 9 9 7 9 8 8 4 2 2 2 3 1 1 6 6 5 6 5 5 4 5 4 3 3 3 4 3 3 5 3
4 5 5 4 4 3 3 3 3 3 4 5 6 7 6 6 7 8 8 8 7 7 8 8 7 8 9 9 8 8 7 8 7 8 9 9 10 9 9 9 8 7 8 9 10 10 11 11 10 9 10 11 10 10 6 9 9 8 9 9 10 11 10 8 7 5 4 3 3 4 3 5 5 3 5 5 4 4 4 4 4 4 4 5 4
Wind_Direction
246 145 149 165 163 161 159 158 158 158 160 161 160 163 165 167 166 168 168 165 164 171 163 165 166 173 170 172 173 178 179 172 174 178 172 171 169 170 176 179 170 185 187 214 202 145 199 263 54 111 307 36 326 311 332 354 349 2 359 344 338 333 326 337 333 326 332 350 330 319 314 308 303 298 294 296 302 303 310 312 312 308 308 301 298
187 130 146 161 164 163 161 160 159 160 161 161 161 163 166 168 167 170 169 168 169 171 165 167 173 175 171 176 178 174 177 177 176 175 177 175 174 177 178 188 169 186 198 222 235 175 211 308 89 246 326 24 360 334 349 340 8 357 352 345 335 328 334 338 337 345 350 337 325 317 311 308 301 293 289 297 294 302 308 310 313 314 302 301 301
145 125 142 159 165 164 165 163 162 162 162 163 164 164 168 169 168 169 172 169 174 173 165 175 178 181 172 176 187 176 184 180 183 181 181 184 173 179 182 185 175 188 198 233 263 207 198 303 352 50 297 18 349 337 321 4 358 346 341 333 334 330 339 339 347 347 338 329 321 315 313 305 296 288 295 305 307 306 308 316 319 312 296 297 296
127 128 145 156 165 168 166 164 165 164 164 165 165 164 168 170 168 172 173 173 175 175 171 181 175 187 176 175 189 183 182 185 193 182 185 188 177 186 188 183 186 190 194 220 258 204 253 325 341 71 310 321 331 329 346 354 352 345 337 334 329 331 343 350 348 337 330 325 320 315 303 289 285 283 323 314 310 311 315 317 315 305 295 290 292
122 128 140 153 162 172 168 167 166 166 166 167 166 166 168 170 171 178 173 176 176 176 178 180 180 180 188 180 185 188 189 185 188 186 199 188 183 193 196 193 185 187 200 206 209 216 264 347 357 27 329 9 317 337 349 353 341 341 336 322 329 346 345 350 343 334 327 323 317 312 289 282 276 321 327 314 310 315 317 312 305 298 293 291 294
131 132 137 155 164 172 171 171 168 168 167 169 169 168 170 172 170 183 175 177 177 179 183 180 182 179 194 184 183 194 190 185 191 189 200 188 195 198 201 189 198 201 216 210 196 210 238 177 251 257 328 34 302 314 349 341 344 340 326 327 338 347 352 344 337 332 325 319 315 303 282 270 338 337 313 312 313 316 316 316 308 301 303 306 307
135 135 145 157 163 170 173 173 172 171 170 170 172 171 173 175 174 177 178 180 181 185 185 180 185 187 189 188 190 191 188 190 190 194 194 191 198 201 211 194 197 202 216 193 204 209 236 239 202 324 356 288 275 320 349 345 337 330 323 329 343 345 347 340 335 328 321 317 289 285 300 334 325 317 317 311 308 313 318 316 309 307 311 312 313
136 135 151 160 161 167 173 173 174 174 174 174 172 172 175 177 177 178 178 180 187 187 185 186 190 191 188 192 194 191 191 195 188 199 195 190 203 197 211 208 205 197 218 207 207 224 237 225 205 212 350 293 322 331 337 341 335 319 332 344 347 349 342 337 332 325 318 307 282 261 306 313 303 326 308 306 308 314 317 313 310 311 312 314 311
139 167 148 161 162 163 172 173 174 176 177 176 174 175 177 179 178 182 180 182 188 187 188 190 192 194 194 194 194 194 194 195 194 197 198 195 210 199 215 203 202 205 207 213 219 226 228 244 209 237 254 270 309 326 325 326 321 331 343 353 348 342 339 335 329 323 315 289 280 306 305 291 317 306 295 299 316 316 315 313 310 307 310 305 300
146 182 169 159 154 160 172 172 175 178 179 178 178 177 180 180 181 183 183 185 191 190 188 191 195 195 198 200 197 197 195 196 197 196 196 196 206 202 212 212 211 206 207 214 223 220 229 230 208 229 258 269 298 316 310 327 323 342 346 351 347 343 339 333 326 322 302 284 298 303 287 302 300 288 283 310 316 316 314 308 304 306 303 300 303
159 168 196 164 148 160 169 174 177 179 180 180 181 182 181 183 183 184 184 188 191 193 192 191 196 197 197 200 203 201 197 201 199 196 199 200 204 203 207 209 208 210 215 218 223 223 231 222 240 244 241 244 276 294 321 321 341 339 328 333 341 342 334 329 326 304 298 298 298 296 302 305 301 281 297 317 315 317 314 306 307 309 306 311 314
152 166 199 153 149 161 168 174 179 181 181 182 182 184 184 187 184 186 187 189 192 194 194 193 196 199 200 200 203 202 201 203 199 201 202 204 204 205 211 211 210 213 217 219 220 225 229 233 231 240 248 251 265 293 324 324 314 304 312 338 335 336 332 325 322 299 285 286 293 295 309 308 300 293 314 320 319 316 311 307 314 314 320 321 320
147 159 167 95 154 163 167 171 178 183 182 182 182 185 185 189 188 188 189 191 195 197 196 197 197 200 201 204 206 205 204 205 203 203 206 205 206 208 210 209 212 214 215 219 220 223 225 230 229 233 240 248 251 281 299 296 288 308 27 334 334 333 330 325 313 303 293 281 276 293 292 295 297 303 329 322 319 313 309 307 315 325 323 321 321
154 151 153 127 151 165 167 170 178 183 183 182 182 183 185 188 190 192 190 194 197 199 198 198 200 201 203 206 209 209 206 208 209 206 207 209 208 209 212 212 213 214 216 218 221 223 227 227 233 234 239 249 258 267 280 292 21 51 360 338 330 331 325 323 313 303 293 283 281 282 325 314 286 317 324 323 318 312 310 312 325 327 325 324 318
152 148 146 127 144 169 168 171 180 181 183 184 183 182 186 189 190 191 191 195 199 200 199 201 202 202 203 207 209 211 209 211 209 206 202 207 212 212 212 214 216 216 215 217 220 223 227 231 234 242 243 253 255 261 267 315 40 11 356 328 332 326 317 309 310 301 293 290 294 359 324 293 316 339 328 325 316 311 309 322 325 326 328 324 321
131 136 141 132 148 162 171 176 180 182 183 184 184 184 187 188 189 192 190 196 199 200 201 202 205 204 205 207 208 212 213 212 208 196 182 197 216 219 216 215 217 218 216 217 218 224 226 228 233 236 239 243 247 260 276 152 341 336 339 325 323 314 309 303 303 296 288 283 331 324 286 300 354 338 332 324 313 311 315 323 327 325 327 324 323
117 127 138 146 149 158 173 178 183 184 186 183 183 188 188 188 188 191 192 196 199 200 203 202 205 206 205 207 208 212 214 216 216 189 179 186 205 236 226 219 219 219 217 217 219 224 227 228 230 233 237 241 248 253 268 279 349 311 313 319 307 305 297 302 296 286 285 295 308 286 286 22 344 338 329 322 315 315 318 325 328 325 330 327 324
95 128 150 151 150 161 170 175 182 187 186 185 186 188 187 187 188 188 190 196 200 198 200 205 206 204 202 203 205 208 218 217 214 192 177 181 192 217 228 220 221 220 216 217 221 225 228 230 231 231 235 241 245 251 260 286 278 296 295 289 296 290 291 294 284 277 275 290 294 296 31 345 346 336 326 323 319 321 322 329 329 329 333 329 327
148 172 157 162 162 160 167 173 183 186 187 185 187 188 187 188 186 187 189 196 201 197 196 203 203 199 200 201 200 206 226 221 207 200 180 182 188 200 214 227 225 221 217 218 222 226 230 232 230 231 233 240 245 254 252 118 111 251 272 279 278 282 289 291 281 260 273 289 317 15 5 351 343 332 329 324 324 324 325 332 333 334 333 334 329
162 185 172 166 173 158 166 169 181 188 189 185 189 189 190 190 190 188 190 195 199 197 195 197 202 198 194 192 193 198 220 225 208 207 184 185 189 189 201 215 228 227 220 217 224 229 233 232 230 232 234 237 245 244 252 215 210 246 253 261 268 274 290 285 253 287 296 307 338 44 351 353 341 330 329 330 328 326 328 336 334 335 335 338 329
167 185 189 165 173 172 166 167 179 187 188 186 190 192 194 190 196 193 190 193 196 196 195 195 196 198 197 196 191 194 200 212 216 210 197 187 191 192 194 197 208 230 224 220 227 232 232 232 231 231 232 238 242 247 239 190 229 238 241 250 260 281 275 259 326 302 295 306 22 30 1 350 339 332 333 333 329 328 330 338 340 338 341 338 333
175 180 202 170 169 180 174 170 173 183 187 189 188 188 188 191 194 194 194 193 194 194 195 194 192 192 194 193 193 194 195 199 206 205 205 193 192 192 199 190 195 210 219 222 235 235 231 228 228 231 232 235 240 158 196 223 227 227 242 245 259 258 258 326 316 290 289 303 79 14 6 351 338 334 336 334 329 333 334 340 341 342 344 341 334
182 181 189 183 175 176 179 183 170 178 184 190 191 184 179 185 193 194 195 194 193 192 192 194 193 192 187 189 191 191 194 209 202 195 197 188 192 192 193 190 193 197 203 214 228 238 233 227 227 229 235 237 190 190 222 225 217 227 233 251 241 256 244 324 269 275 315 297 86 18 5 356 339 337 339 337 337 339 335 343 343 343 348 341 338
191 185 180 184 174 181 185 183 175 174 180 187 190 183 178 175 188 193 191 193 194 194 196 195 195 196 193 192 193 197 195 201 213 196 188 186 188 188 192 189 186 190 191 201 218 231 232 230 227 226 189 196 177 209 223 237 205 199 216 230 230 229 315 253 267 275 302 316 85 34 7 359 341 340 341 338 342 345 341 341 346 344 349 344 340
201 183 170 180 182 183 180 184 179 174 179 184 185 187 180 170 186 189 191 191 194 193 197 197 198 196 199 198 197 198 197 194 201 200 188 180 176 180 188 188 185 186 184 183 195 209 221 220 220 197 215 209 211 222 234 231 215 185 201 210 108 6 301 288 277 282 284 335 108 49 17 6 345 344 343 339 347 347 346 344 347 348 349 345 343
204 174 179 180 182 180 179 181 179 178 182 183 185 184 181 180 180 187 191 190 189 192 194 198 196 199 199 200 193 195 196 194 196 187 183 175 171 167 177 179 180 186 176 188 194 199 202 202 199 201 212 226 215 218 229 216 219 211 74 74 75 302 314 298 287 284 297 327 140 75 29 17 353 344 342 344 347 348 347 351 346 350 351 350 348
221 207 176 179 177 177 178 177 181 180 184 186 182 179 190 190 180 183 188 193 185 190 193 196 199 194 197 195 196 194 194 195 193 182 181 173 177 167 173 179 185 187 177 182 197 208 189 198 198 196 199 215 229 217 210 201 146 75 15 352 206 260 294 272 302 302 337 301 151 79 53 21 5 344 344 348 349 349 354 354 352 354 350 356 353
203 215 201 174 176 179 178 179 183 180 184 187 185 186 189 189 192 182 191 193 186 192 192 193 193 197 193 193 195 196 194 194 193 182 179 175 184 178 171 178 186 188 176 177 188 209 197 190 192 192 194 208 220 209 194 155 167 188 211 229 219 231 263 291 293 282 290 290 230 173 100 22 10 349 348 352 353 353 0 355 353 357 1 2 3
210 206 204 187 180 180 181 181 183 185 184 183 189 190 187 191 190 189 191 188 195 192 190 185 190 193 192 189 189 195 195 197 194 184 167 182 180 183 178 176 179 184 177 179 185 200 200 188 187 185 189 208 207 202 174 185 180 190 199 207 183 233 266 266 256 266 277 269 301 168 135 126 351 353 351 354 358 359 0 358 356 357 6 2 8
215 208 204 200 182 183 184 187 183 185 184 180 191 190 190 190 192 194 191 186 198 191 183 188 190 187 190 190 189 192 194 196 194 182 175 179 182 183 184 178 176 181 177 179 187 187 190 186 187 178 183 196 203 199 182 203 186 202 171 170 188 230 252 258 258 238 260 317 307 271 200 232 301 330 352 358 1 4 360 3 2 360 7 8 8
218 218 212 206 196 184 188 188 190 186 182 182 190 196 191 192 194 192 189 193 193 185 187 188 187 190 188 187 188 190 190 191 189 185 182 177 179 184 187 176 176 182 174 180 181 182 184 183 180 177 176 192 214 201 180 188 184 203 182 149 201 251 287 277 263 240 255 283 320 300 252 248 261 268 345 349 5 4 3 5 5 7 6 8 8
215 217 214 210 203 198 187 189 190 189 184 188 191 194 196 197 191 189 195 194 184 189 189 190 191 189 185 185 188 188 189 189 183 185 184 181 183 183 183 178 183 178 174 176 178 179 181 182 178 172 175 182 204 209 181 177 183 182 186 165 171 226 248 271 284 252 211 257 277 282 295 311 326 308 308 334 352 359 356 357 4 14 5 9 14
214 210 209 207 210 203 197 191 191 191 189 191 194 196 196 194 188 193 193 186 188 189 193 194 191 188 186 184 187 186 188 190 183 183 182 185 185 181 183 186 180 176 172 174 173 176 175 173 174 168 172 181 191 205 174 190 188 190 162 166 178 206 220 246 275 272 191 255 271 280 318 311 18 347 346 318 347 355 347 350 3 13 12 7 13
211 207 204 208 205 203 199 199 195 192 192 197 195 192 194 194 191 188 183 181 186 191 197 194 189 189 187 184 185 186 187 190 182 180 179 181 186 186 183 185 181 175 168 168 173 172 172 163 168 153 178 181 193 205 157 180 245 199 160 171 156 204 220 241 251 241 150 291 281 298 303 16 27 346 312 315 3 350 344 348 358 10 17 7 11
215 208 202 203 201 201 192 205 199 195 193 199 194 192 193 191 186 183 182 183 187 192 195 192 192 189 182 188 185 186 187 189 187 177 179 179 184 186 185 185 177 171 166 171 167 168 166 168 158 159 177 185 194 203 164 180 208 218 190 164 171 206 183 216 250 230 224 244 267 270 318 61 22 331 306 309 1 341 340 342 353 359 13 2 12
221 215 210 195 201 196 190 195 193 196 197 197 196 194 191 188 184 183 183 183 186 193 194 194 193 186 186 188 187 186 185 188 189 177 178 182 183 187 187 174 176 168 165 165 165 170 169 167 170 160 168 189 186 209 189 191 201 203 182 164 182 156 156 255 259 201 216 223 293 272 300 89 30 305 303 333 12 347 337 341 348 351 6 3 6
219 215 210 199 194 189 188 193 196 196 196 194 195 194 186 185 184 183 184 183 188 195 194 191 190 191 192 190 187 185 185 185 187 181 177 183 182 182 182 177 172 170 162 167 173 175 168 166 175 173 164 175 179 194 196 191 206 191 176 170 162 142 161 249 263 237 148 237 261 254 325 222 151 351 331 330 19 357 331 344 348 349 354 359 4
217 213 208 195 192 185 189 196 199 197 193 192 194 193 189 185 183 182 183 186 194 193 192 187 191 190 189 194 187 184 185 184 185 184 180 182 180 177 174 174 170 167 162 166 179 174 171 164 172 181 172 164 176 181 189 188 197 184 172 172 185 164 197 221 260 238 182 244 243 240 281 282 127 335 316 348 31 345 331 345 343 352 352 346 354
219 216 212 195 187 191 189 193 194 195 195 189 189 185 172 169 170 177 186 194 189 191 186 189 191 188 195 192 183 184 185 184 184 185 183 178 181 176 172 173 169 169 164 165 176 179 171 171 167 176 183 173 169 177 175 173 189 176 177 196 187 191 200 202 200 188 219 220 195 223 263 268 184 140 338 2 41 342 338 354 351 352 347 339 346
217 214 207 190 187 189 191 194 192 189 189 173 161 161 162 171 179 187 192 200 194 187 189 189 184 192 194 185 181 181 181 183 185 186 185 178 180 179 170 170 172 170 170 169 178 183 176 173 173 165 173 196 174 164 167 167 166 158 190 232 205 196 202 196 206 216 249 192 209 205 228 254 171 160 152 327 52 344 341 14 350 352 345 339 342
208 203 195 188 182 182 180 198 191 179 169 164 168 168 174 181 189 194 200 195 189 184 190 190 189 194 186 182 176 178 178 182 185 183 188 181 179 173 165 172 172 177 177 181 179 181 175 169 164 159 164 172 206 177 171 144 140 183 232 223 244 219 194 193 204 204 232 232 210 211 249 265 124 119 126 288 97 336 334 23 355 357 349 343 346
213 190 186 183 182 185 189 194 181 175 177 175 175 179 182 188 189 197 189 178 179 183 193 195 195 188 181 179 175 176 177 181 183 184 183 182 175 174 174 174 174 179 179 174 171 173 168 164 160 153 173 167 185 178 173 128 167 173 167 261 272 268 212 181 188 220 222 236 219 202 241 209 74 119 212 291 132 145 330 358 15 19 346 350 350
194 185 184 178 182 189 196 192 181 179 181 176 173 183 187 185 182 182 178 176 193 192 191 190 183 182 183 175 172 173 171 179 180 180 179 178 178 178 184 173 177 174 170 174 174 176 177 172 172 165 162 174 162 185 177 166 164 175 203 109 218 139 310 334 265 211 210 216 221 199 226 229 164 218 207 248 69 313 15 344 31 31 350 351 350
204 193 187 187 190 194 195 186 179 179 175 180 179 182 173 164 163 159 172 170 178 175 170 171 181 175 182 171 169 172 172 175 176 178 178 181 182 185 179 173 181 179 178 175 179 178 177 175 173 170 158 164 181 195 186 185 150 143 218 192 200 148 256 255 191 252 187 207 193 217 208 224 197 194 241 138 156 302 69 24 47 44 1 350 350
206 210 200 198 193 196 191 182 174 175 174 170 168 155 145 146 149 136 146 129 113 157 164 188 189 185 164 177 181 173 175 174 178 184 187 186 185 183 181 176 178 182 180 181 183 184 183 179 174 169 177 174 181 167 197 187 199 191 144 137 308 30 221 185 116 321 169 179 210 210 198 215 194 196 214 173 189 204 156 61 353 57 13 350 349
195 208 195 199 182 185 180 184 174 166 170 171 166 158 165 166 164 158 172 181 178 172 188 191 184 187 194 175 167 177 176 179 182 188 191 188 186 184 180 178 179 182 187 187 184 179 181 181 185 179 179 183 170 156 178 205 200 217 213 165 159 178 162 181 104 199 287 207 198 220 192 211 223 198 212 177 198 216 142 142 312 108 69 337 340
201 181 201 201 183 178 182 182 182 177 172 175 173 167 171 178 182 185 183 185 184 198 190 181 184 183 157 171 178 174 181 181 186 185 189 190 187 188 186 183 181 185 186 184 185 188 186 187 181 183 184 171 163 173 176 180 187 237 197 164 159 182 156 133 189 112 132 291 186 204 230 217 217 205 240 206 197 170 156 151 219 156 129 24 338
174 153 180 202 207 199 187 188 184 177 174 169 175 175 177 181 184 187 187 188 192 184 174 172 162 159 171 173 170 180 180 183 184 186 187 189 189 189 188 183 182 187 185 193 191 187 183 186 187 188 178 181 177 177 173 171 176 204 184 162 152 148 159 93 125 154 153 152 227 276 219 198 204 220 220 227 194 190 168 173 184 169 123 84 339
108 122 130 164 273 171 170 169 180 173 171 169 175 182 180 181 183 181 184 191 176 165 159 156 163 165 172 175 174 179 181 185 185 186 187 187 189 189 188 188 185 188 189 194 191 185 186 183 184 184 187 188 183 169 162 181 181 185 160 189 165 202 203 182 157 114 135 120 191 178 189 268 237 250 240 227 207 185 171 174 174 148 133 128 232
88 107 118 127 137 128 152 168 177 168 165 168 177 182 178 170 178 187 185 179 171 165 161 168 170 166 175 178 176 175 183 185 188 186 185 186 188 189 190 192 192 189 188 193 192 188 188 190 189 188 183 183 186 177 177 175 184 175 183 169 174 177 170 199 205 172 155 139 162 196 182 167 187 254 216 214 192 188 169 149 146 158 156 157 184
144 139 148 140 150 156 163 168 179 147 153 167 169 181 177 174 181 184 186 181 178 166 163 169 165 165 176 180 178 179 178 186 182 187 187 184 187 191 191 192 191 189 186 193 200 193 191 189 186 180 184 183 185 189 175 172 175 176 179 180 190 184 186 182 189 177 161 150 118 165 164 183 180 176 226 197 195 201 186 186 165 180 200 159 156